{"data":{"norad_id":52100,"intl_designator":"2022-029N","name":"STARLINK-3702","alt_names":[],"object_type":"PAYLOAD","status":"ACTIVE","operator":null,"country":"US","launch_date":"2022-03-19","launch_site_code":"AFETR","launch_vehicle":null,"mission":null,"orbit_class":"UNKNOWN","rcs_meters":null,"size_class":null,"mass_kg":null,"dimensions":null,"purposes":["comms"],"wikipedia_slug":null,"has_3d_model":false,"image_url":null,"decayed_at":null,"tle_current":{"epoch":"2026-09-20T00:23:47.580288Z","epoch_age_seconds":98027,"freshness":"FRESH","line1":"1 52100U 22029N   26263.01652292  .00001641  00000+0  59704-4 0  9999","line2":"2 52100  53.1588 280.0252 0001237  86.6232 273.4912 15.34393525250228","mean_motion":15.34393525,"eccentricity":0.0001237,"inclination_deg":53.1588,"raan_deg":280.0252,"arg_perigee_deg":86.6232,"mean_anomaly_deg":273.4912,"bstar":5.9704e-5,"rev_number":25022,"period_min":93.84815411027,"perigee_km":461.87627102099,"apogee_km":463.56869965766,"semimajor_km":6840.8594853393,"source":"CELESTRAK","updated_at":"2026-09-20T09:00:39.985684Z"}}}